User: anonymous   Login
Location: Chevoux
(46.3801°N, 4.9476°E)
Time: 14:03:52
(UTC+00:00)
Language:

Cosmos 44 Rocket - Orbit

View from above orbital plane
View from above orbital plane
View from above satellite
View from above satellite

Ground track
Ground track

The orbit data is extracted from the following two-line orbital elements,

1 00877U 64053B   21125.92503814 -.00000086  00000-0  77610-5 0  9994
2 00877  65.0764 106.5700 0083440 272.7859  86.3692 14.59427043  8540
Epoch (UTC): 05 May 2021 22:12:03
Eccentricity: 0.0083440
inclination: 65.0764°
perigee height: 636 km
apogee height: 754 km
right ascension of ascending node: 106.5700°
argument of perigee: 272.7859°
revolutions per day: 14.59427043
mean anomaly at epoch: 86.3692°
orbit number at epoch: 854

The dashed part of the orbit path shows where the satellite is in the earth's shadow,  

DLR